Reno, NV

8:15 PM PDT on October 18, 2019 (GMT -0700)
Reno-Tahoe International

Weather History for KRNO - August, 2019

Change the Weather History Date:

Sunday, August 25, 2019

  Actual Average Record
Temperature  
Mean Temperature 79 °F 71 °F  
Max Temperature 96 °F 89 °F 99 °F (1924)
Min Temperature 62 °F 54 °F 31 °F (1963)
Degree Days  
Heating Degree Days 0 0  
Month to date heating degree days 0 0  
Since 1 June heating degree days 15 61  
Since 1 July heating degree days 0 5  
Cooling Degree Days 14 7  
Month to date cooling degree days 317 223  
Year to date cooling degree days 908 710  
Since 1 June cooling degree days 894 673  
Growing Degree Days 29 (Base 50)    
Moisture  
Dew Point 42 °F    
Average Humidity 29    
Maximum Humidity 56    
Minimum Humidity 13    
Precipitation  
Precipitation 0.00 in 0.01 in 0.41 in (1967)
Month to date precipitation T 0.20  
Year to date precipitation 8.76 4.66  
Snow  
Snow 0.00 in 0.00 in 0.00 in ()
Month to date snowfall 0.0 0.0  
Since 1 June snowfall 0.0 T  
Since 1 July snowfall 0.0 0.0  
Snow Depth 0.00 in    
Sea Level Pressure  
Sea Level Pressure 29.96 in    
Wind  
Wind Speed 6 mph ()    
Max Wind Speed 22 mph    
Max Gust Speed 28 mph    
Visibility 10.0 miles    
Events      
T = Trace of Precipitation, MM = Missing Value Source: Averaged Metar Reports

Daily Weather History Graph

Daily Weather History Graph

Search for Another Location

Airport or City:

Astronomy

Aug. 25, 2019 Rise Set
Actual Time 6:20 AM PDT 7:40 PM PDT
Civil Twilight 5:52 AM PDT 8:08 PM PDT
Nautical Twilight 5:19 AM PDT 8:42 PM PDT
Astronomical Twilight 4:43 AM PDT 9:17 PM PDT
Moon 1:00 AM PDT (8/25) 4:06 PM PDT (8/25)
Length of Visible Light 14h 16m
Length of Day
13h 20m
Waning Crescent, 28% of the Moon is Illuminated
Aug 25
Waning Crescent
Aug 30
New
Sep 5
First Quarter
Sep 13
Full
Sep 21
Last Quarter

Hourly Weather History & Observations

Time (PDT) Temp. Dew Point Humidity Pressure Visibility Wind Dir Wind Speed Gust Speed Precip Events Conditions
12:55 AM 75.0 °F 43.0 °F 32% 29.94 in 10.0 mi East 3.5 mph - N/A   Clear
1:55 AM 75.0 °F 43.0 °F 32% 29.93 in 10.0 mi West 8.1 mph - N/A   Clear
2:55 AM 70.0 °F 46.0 °F 42% 29.94 in 10.0 mi SSW 6.9 mph - N/A   Clear
3:55 AM 66.9 °F 46.0 °F 47% 29.96 in 10.0 mi SSE 3.5 mph - N/A   Clear
4:55 AM 64.9 °F 45.0 °F 48% 29.97 in 10.0 mi South 4.6 mph - N/A   Clear
5:55 AM 64.9 °F 45.0 °F 48% 29.98 in 10.0 mi Calm Calm - N/A   Clear
6:55 AM 62.1 °F 46.0 °F 56% 30.02 in 10.0 mi South 5.8 mph - N/A   Clear
7:55 AM 68.0 °F 46.0 °F 45% 30.03 in 10.0 mi South 4.6 mph - N/A   Clear
8:55 AM 73.9 °F 44.1 °F 34% 30.01 in 10.0 mi Calm Calm - N/A   Clear
9:55 AM 79.0 °F 43.0 °F 28% 30.00 in 10.0 mi Calm Calm - N/A   Clear
10:55 AM 84.0 °F 42.1 °F 23% 29.99 in 10.0 mi Variable 4.6 mph - N/A   Partly Cloudy
11:55 AM 87.1 °F 37.9 °F 18% 29.97 in 10.0 mi Variable 4.6 mph - N/A   Partly Cloudy
12:55 PM 91.9 °F 37.9 °F 15% 29.94 in 10.0 mi Variable 3.5 mph - N/A   Partly Cloudy
1:55 PM 93.9 °F 37.0 °F 14% 29.92 in 10.0 mi WNW 12.7 mph 25.3 mph N/A   Partly Cloudy
2:55 PM 95.0 °F 37.9 °F 14% 29.91 in 10.0 mi West 20.7 mph 25.3 mph N/A   Clear
3:55 PM 93.9 °F 39.0 °F 15% 29.91 in 10.0 mi WSW 9.2 mph - N/A   Clear
4:55 PM 93.9 °F 39.0 °F 15% 29.91 in 10.0 mi West 19.6 mph - N/A   Clear
5:55 PM 91.9 °F 39.9 °F 16% 29.91 in 10.0 mi West 12.7 mph - N/A   Clear
6:55 PM 88.0 °F 42.1 °F 20% 29.93 in 10.0 mi West 13.8 mph - N/A   Clear
7:55 PM 84.9 °F 43.0 °F 23% 29.94 in 10.0 mi WNW 17.3 mph - N/A   Clear
8:55 PM 82.0 °F 45.0 °F 27% 29.95 in 10.0 mi WNW 19.6 mph - N/A   Clear
9:55 PM 79.0 °F 46.0 °F 31% 29.98 in 10.0 mi NW 10.4 mph - N/A   Clear
10:55 PM 78.1 °F 43.0 °F 29% 29.98 in 10.0 mi NW 5.8 mph - N/A   Clear
11:55 PM 73.0 °F 43.0 °F 34% 29.98 in 10.0 mi East 3.5 mph - N/A   Clear